Regional Weather Roundup
Issued by NWS Jackson, KY

Home | Current Version | Previous Version | Text Only | Print | Product List | Glossary Off
Versions: 1 2 3 4 5 6 7 8 9 10 11 12 13 14 15 16 17 18 19 20 21 22 23 24 25 26 27 28 29 30 31 32 33 34 35 36 37 38 39 40 41 42 43 44 45 46 47 48 49 50

000
ASUS43 KJKL 291310
RWRJKL

EAST KENTUCKY HOURLY WEATHER ROUNDUP
NATIONAL WEATHER SERVICE JACKSON KY
900 AM EDT SUN MAR 29 2015

NOTE: "FAIR" INDICATES FEW OR NO CLOUDS BELOW 12,000 FEET WITH
NO SIGNIFICANT WEATHER AND/OR OBSTRUCTIONS TO VISIBILITY.

* THESE REPORTS ARE NOT UNDER NWS QUALITY CONTROL AND MAY NOT
  REPORT WEATHER SUCH AS PRECIPITATION AND FOG.

KYZ079-080-083-085-087-088-110-112-115-119-120-291400
...EASTERN KENTUCKY...

CITY           SKY/WX    TMP DP  RH WIND       PRES   REMARKS
JACKSON        SUNNY     27  11  51 S3        30.36R
LONDON         SUNNY     27  16  63 SE3       30.36R
SOMERSET*      SUNNY     27  19  74 CALM      30.40R
MONTICELLO*    SUNNY     32  17  54 SE6       30.39R WCI  26
MIDDLESBORO*   SUNNY     25  20  84 CALM      30.40S
HAZARD APT*    SUNNY     27  18  69 CALM      30.37
BLACK MTN*       N/A     25   1  36 S5          N/A  WCI  19
PIKEVILLE APT* SUNNY     27  14  59 SE3       30.36S
BIG SANDY*     SUNNY     28  15  57 S5        30.38S WCI  23
MOREHEAD APT*  SUNNY     27  14  59 SE5       30.39S WCI  21
$$

KYZ035-036-041-042-044-050-067-078-099-291400
...CENTRAL KENTUCKY...

CITY           SKY/WX    TMP DP  RH WIND       PRES   REMARKS
MT STERLING*   SUNNY     30  16  55 S5        30.39R WCI  25
FLEMING/MASON* SUNNY     28  16  59 S7        30.39R WCI  21
DANVILLE*      SUNNY     28  19  69 S6        30.36F WCI  22
RICHMOND*      SUNNY     30  14  51 S5        30.36R WCI  25
LEXINGTON      SUNNY     28  14  55 SE10      30.35S WCI  19
FRANKFORT      SUNNY     27  16  63 S9        30.35S WCI  18
$$

KYZ091>093-OHZ055-061-077-WVZ005-015-034-035-042-291400
...SOUTHERN OHIO/WEST VIRGINIA...

CITY           SKY/WX    TMP DP  RH WIND       PRES   REMARKS
COVINGTON      MOSUNNY   28  16  60 S14       30.34R WCI  17
COLUMBUS       MOSUNNY   24  15  68 S6        30.37R WCI  17
DAYTON         PTSUNNY   28  16  60 S14       30.32F WCI  17
WILMINGTON     SUNNY     26  16  65 S13       30.33F WCI  15
HUNTINGTON     SUNNY     24  16  71 E3        30.39F
CHARLESTON     SUNNY     23  17  78 CALM      30.40R
PINEVILLE*     SUNNY     22  19  86 MISG      30.42R
BECKLEY        SUNNY     20   8  60 CALM      30.31R
BLUEFIELD      SUNNY     22   8  55 SW5       30.30R WCI  16
$$

VAZ002-007-008-TNZ017-027-036-066-071-291400
...SOUTHWEST VIRGINIA/EAST TENNESSEE...

CITY           SKY/WX    TMP DP  RH WIND       PRES   REMARKS
WISE*          SUNNY     27  10  50 S3        30.31R
JONESVILLE*    SUNNY     25  18  74 CALM      30.41R
ABINGDON*      SUNNY     28  12  51 CALM      30.35S
BRISTOL        SUNNY     26  16  65 NE3       30.39R
KNOXVILLE      MOSUNNY   28  21  75 E5        30.38R WCI  23
OAK RIDGE      SUNNY     31  22  69 NE3       30.40R
CROSSVILLE     SUNNY     31  14  49 E5        30.32R WCI  26
NASHVILLE      MOSUNNY   32  20  61 SE5       30.35R WCI  27
$$

...KEY TO REMARKS...
VSB - VISIBILITY IN MILES
WCI - WIND CHILL INDEX
HX  - HEAT INDEX

$$


USA.gov is the U.S. government's official web portal to all federal, state and local government web resources and services.